User: anonymous   Login
Location: Arrodets-la-Barthe
(43.0306°N, 0.2829°E)
Time: 01:22:30
(UTC+00:00)
Language:

Cosmos 1605 Rocket - Orbit

View from above orbital plane
View from above orbital plane
View from above satellite
View from above satellite

Ground track
Ground track

The orbit data is extracted from the following two-line orbital elements,

1 15360U 84109B   22019.54780895  .00000128  00000-0  11370-3 0  9993
2 15360  82.9380 242.2426 0042237  42.9215 317.5225 13.76785815872126
Epoch (UTC): 19 January 2022 13:08:50
Eccentricity: 0.0042237
inclination: 82.9380°
perigee height: 944 km
apogee height: 1006 km
right ascension of ascending node: 242.2426°
argument of perigee: 42.9215°
revolutions per day: 13.76785815
mean anomaly at epoch: 317.5225°
orbit number at epoch: 87212

The dashed part of the orbit path shows where the satellite is in the earth's shadow,  

DLR